KOREASAT 7

Last updated on Jan. 29, 2020, 4:37 a.m. UTC

1 42691U 17023A   20028.86436491 -.00000363  00000-0  00000-0 0  9991
2 42691   0.0316  74.3518 0001132 206.8357 273.4502  1.00270764  9997
UTC
Height (km)
Latitude
Longitude
Inclination
Orbital Period
UTC large
Height (km)
Speed (km/s)
/
Latitude / Longitude
Inclination (degrees)
Orbital Period (minutes)
Azimuth
Elevation
Range (km)
Doppler Factor
iOS Compass Heading
iOS Angle

Next 30 passes for location: Hong Kong

Rise time Rise Azimuth (degrees) Set time Set Azimuth (degrees) Duration Max altitude (degrees)

No matching passes for this satellites